Regional Weather Roundup
Issued by NWS Portland, ME

Current Version | Previous Version | Text Only | Print | Product List | Glossary Off
Versions: 1 2 3 4 5 6 7 8 9 10 11 12 13 14 15 16 17 18 19 20 21 22 23 24 25 26 27 28 29 30 31 32 33 34 35 36 37 38 39 40 41 42 43 44 45 46 47 48 49 50
000 ASUS41 KGYX 161910 RWRGYX WEATHER ROUNDUP FOR MAINE AND NEW HAMPSHIRE NATIONAL WEATHER SERVICE GRAY ME 300 PM EDT TUE OCT 16 2018 MEZ002-005-006-010-012-015-018-020-021-024-026-027-029-162000- MAINE CITY SKY/WX TMP DP RH WIND PRES REMARKS PORTLAND FAIR 56 29 35 W15G23 29.91S SANFORD FAIR 56 29 35 W13 29.94S BAR HARBOR FAIR 52 31 44 NW12G20 29.85R WISCASSET FAIR 55 29 36 VRB7G20 29.91R ROCKLAND FAIR 54 32 43 W16 29.87S FRYEBURG FAIR 54 27 35 NW9G17 29.91F LEWISTONAUBURN FAIR 53 26 35 NW15G21 29.90S AUGUSTA FAIR 52 27 38 W9G17 29.89R WATERVILLE FAIR 52 29 41 W15G23 29.85F BANGOR FAIR 53 29 39 W13G23 29.84S GREENVILLE N/A 41 25 53 W15G29 29.79F MILLINOCKET PTSUNNY 47 27 45 W10G22 29.83R HOULTON FAIR 47 28 47 W15G31 29.74R PRESQUE ISLE PTSUNNY 46 26 45 W21G28 29.73R FRENCHVILLE FAIR 46 23 40 W23G31 29.68R CARIBOU PTSUNNY 47 27 45 W13G25 29.70R $$ NHZ002-005-008-009-011-012-014-162000- NEW HAMPSHIRE CITY SKY/WX TMP DP RH WIND PRES REMARKS PORTSMOUTH MOSUNNY 57 27 32 W12G24 29.93F ROCHESTER FAIR 56 30 37 W8 29.94S NASHUA FAIR 56 31 38 VRB6 29.98F MANCHESTER FAIR 57 29 34 W9G22 29.95F CONCORD FAIR 56 28 34 NW13G22 29.95F LACONIA FAIR 53 28 38 W16G24 29.93F PLYMOUTH FAIR 52 26 35 W8 29.94S BERLIN FAIR 49 29 46 VRB6G17 29.90S WHITEFIELD PTSUNNY 49 29 46 W14G22 29.93F JAFFREY FAIR 52 33 48 W8 29.98F KEENE PTSUNNY 53 32 44 SW13 29.99F LEBANON FAIR 54 27 35 W14 29.95F MT WASHINGTON FOG 19 19 100 W62G76 N/A VSB 1/8 WCI -5 $$ VTZ005-007-008-162000- VERMONT CITY SKY/WX TMP DP RH WIND PRES REMARKS ST JOHNSBURY N/A 49 28 44 MISG 29.94F MONTPELIER FAIR 46 28 49 W13 29.99F BURLINGTON PTSUNNY 53 27 36 W13G21 29.98F $$ MAZ007-012-024-CTZ003-RIZ002-NYZ038-NYZ072-162000- SOUTHERN NEW ENGLAND AND NY CITY SKY/WX TMP DP RH WIND PRES REMARKS BOSTON FAIR 59 30 33 W15 29.98F WORCESTER FAIR 52 34 50 W12G18 29.99F NANTUCKET FAIR 55 36 48 W15 30.02F PROVIDENCE FAIR 57 34 41 W13G20 30.02S HARTFORD FAIR 58 32 37 W10 30.02F ALBANY FAIR 55 33 43 NW9 30.04F NEW YORK CITY PTSUNNY 56 28 34 W8 30.08F $$ ANZ081-ANZ082-ANZ150-NHZ014-MEZ023>029-162000- COASTAL MARINE OBSERVATIONS STATION/POSITION TIME TEMP WIND PRES WAVE AIR SEA DIR/SP/G HT/PER (UTC) (F) (DEG/KT/KT) (MB) (FT/S) MOUNT DESERT ROC 1900 51 260/ 22/ 25 1011.5R MATINICUS ROCK 1800 53 270/ 24/ 27 1011.4F ISLE OF SHOALS 1800 53 270/ 18/ 20 1013.6F JEFFREYS LEDGE 1806 57 N/A 4/ 5 $$ .............KEY.............. WCI - WIND CHILL TC - TEMPERATURE IN CELSIUS VSB - VISIBILITY IN MILES HX - HEAT INDEX FAIR- INDICATES FEW OR NO CLOUDS BELOW 12,000 FT, WITH NO SIGNIFICANT WEATHER AND/OR OBSTRUCTIONS TO VISIBILITY.

USA.gov is the U.S. government's official web portal to all federal, state and local government web resources and services.